#timestamp,LO_Frequency,Hit,StdDev 
1523098815.7,286047002.3,N
1523098835.5,286047000.2,N
1523098855.4,286046999.1,N
1523098875.2,286046999.0,N
1523098895.0,286046998.3,N
1523098895.9,286046998.3,N
1523098915.8,286047000.9,N
1523098935.6,286047002.6,N
1523098955.4,286046999.7,N
1523098975.3,286047000.0,N
1523098995.1,286047001.9,N
1523099015.9,286047000.1,N
1523099035.7,286047000.1,N
1523099055.5,286047002.2,N
1523099075.4,286047004.3,N
1523099095.2,286046999.9,N
1523099115.0,286047000.3,N
1523099116.0,286047000.3,N
1523099135.8,286046999.7,N
1523099155.6,286047001.9,N
1523099175.5,286047002.4,N
1523099195.3,286047002.2,N
1523099215.1,286047002.3,N
1523099235.9,286047002.3,N
1523099255.7,286047001.3,N
1523099275.6,286047003.6,N
1523099295.4,286047002.6,N
1523099315.2,286046998.5,N
1523099335.1,286047001.0,N
1523099336.0,286047001.0,N
1523099355.8,286047001.2,N
1523099375.6,286047002.8,N
1523099395.5,286047000.5,N
1523099415.3,286046998.2,N
1523099435.2,286046998.1,N
1523099455.0,286047000.4,N
1523099455.9,286047000.4,N
1523099475.7,286047002.8,N
1523099495.6,286046999.8,N
1523099515.4,286046999.8,N
1523099535.3,286046998.2,N
1523099555.1,286047000.1,N
1523099575.8,286047002.2,N
1523099595.7,286047002.2,N
1523099615.5,286047002.5,N
1523099635.4,286047002.2,N
1523099655.2,286047002.3,N
1523099675.0,286046999.9,N
1523099675.9,286046999.9,N
1523099695.8,286047000.5,N
1523099715.6,286047000.3,N
1523099735.4,286047001.0,N
1523099755.3,286047000.0,N
1523099775.1,286046998.3,N
1523099795.9,286046998.2,N
1523099815.7,286047000.9,N
1523099835.5,286047001.1,N
1523099855.4,286046998.8,N
1523099875.2,286046998.7,N
1523099895.0,286046999.6,N
1523099895.9,286046999.6,N
1523099915.8,286046997.0,N
1523099935.6,286046999.0,N
1523099955.5,286046998.1,N
1523099975.3,286046999.0,N
1523099995.1,286046997.0,N
1523100015.9,286046996.5,N
1523100035.7,286046999.3,N
1523100055.6,286046999.2,N
1523100075.4,286046999.3,N
1523100095.2,286046999.1,N
1523100115.1,286047001.2,N
1523100116.0,286047001.2,N
1523100135.8,286046998.1,N
1523100155.7,286047001.2,N
1523100175.5,286046998.9,N
1523100195.3,286046999.4,N
1523100215.2,286046999.5,N
1523100235.9,286046998.3,N
1523100255.7,286046998.9,N
1523100275.6,286046998.8,N
1523100295.4,286047001.2,N
1523100315.2,286047001.2,N
1523100335.1,286046998.2,N
1523100336.0,286046998.2,N
1523100355.8,286046998.6,N
1523100375.7,286046999.0,N
1523100395.5,286047000.1,N
1523100415.3,286047000.9,N
1523100435.2,286047002.0,N
1523100455.0,286047002.1,N
1523100455.9,286047002.1,N
1523100475.8,286047002.1,N
1523100495.6,286047002.5,N
1523100515.4,286047002.3,N
1523100535.3,286047002.6,N
1523100555.1,286047001.9,N
1523100575.8,286047002.8,N
1523100595.7,286047002.4,N
1523100615.5,286047000.0,N
1523100635.4,286047000.4,N
1523100655.2,286046998.1,N
1523100675.0,286047000.5,N
1523100675.9,286047000.5,N
1523100695.8,286047000.5,N
1523100715.6,286047000.3,N
1523100735.4,286047000.7,N
1523100755.3,286046998.2,N
1523100775.1,286046998.2,N
1523100795.9,286047000.8,N
1523100815.7,286047001.2,N
1523100835.5,286046998.8,N
1523100855.4,286046998.5,N
1523100875.2,286046998.1,N
1523100895.0,286046999.8,N
1523100896.0,286046999.8,N
1523100915.8,286047002.0,N
1523100935.6,286047001.9,N
1523100955.5,286047002.6,N
1523100975.3,286047002.5,N
1523100995.1,286047001.9,N
1523101015.9,286047002.4,N
1523101035.7,286047000.3,N
1523101055.6,286047001.2,N
1523101075.4,286047002.8,N
1523101095.2,286047000.3,N
1523101115.1,286047002.4,N
1523101116.0,286047002.4,N
1523101135.8,286047000.4,N
1523101155.6,286046998.4,N
1523101175.5,286047000.8,N
1523101195.3,286047000.4,N
1523101215.2,286047002.7,N
1523101235.9,286047000.2,N
1523101255.7,286047000.2,N
1523101275.6,286047000.0,N
1523101295.4,286046999.9,N
1523101315.2,286047000.3,N
1523101335.1,286046999.8,N
1523101336.0,286046999.8,N
1523101355.8,286046999.7,N
1523101375.7,286047002.2,N
1523101395.5,286047002.5,N
1523101415.3,286047002.5,N
1523101435.2,286047002.7,N
1523101455.0,286047002.7,N
1523101455.9,286047002.7,N
1523101475.7,286047000.1,N
1523101495.6,286047002.7,N
1523101515.4,286047002.2,N
1523101535.3,286047002.8,N
1523101555.1,286047000.4,N
1523101556.0,286047000.4,N
1523101575.8,286047000.1,N
1523101595.7,286047002.8,N
1523101615.5,286047000.5,N
1523101635.4,286046998.4,N
1523101655.2,286046998.6,N
1523101675.0,286046998.5,N
1523101675.9,286046998.5,N
1523101695.8,286047002.0,N
1523101715.6,286047002.3,N
1523101735.4,286047002.3,N
1523101755.3,286046999.7,N
1523101775.1,286047002.5,N
1523101795.9,286047004.2,N
1523101815.7,286047005.3,Y
1523101835.5,286047003.8,P
1523101855.4,286047001.5,N
1523101875.2,286047005.0,P
1523101895.0,286047003.8,N
1523101895.9,286047003.8,N
1523101915.8,286047004.4,Y
1523101935.6,286046999.1,P
1523101955.5,286047000.4,N
1523101975.3,286046999.9,N
1523101995.1,286046998.2,N
1523102015.9,286046998.8,N
1523102035.7,286046996.8,N
1523102055.6,286046997.9,N
1523102075.4,286046997.6,N
1523102095.2,286046995.5,N
1523102115.1,286046997.8,N
1523102116.0,286046997.8,N
1523102135.8,286046997.9,N
1523102155.6,286046997.5,N
1523102175.5,286046997.9,N
1523102195.3,286046995.6,N
1523102215.2,286046996.1,N
1523102235.9,286046995.7,N
1523102255.7,286046995.5,N
1523102275.6,286046997.4,N
1523102295.4,286046997.9,N
1523102315.2,286046997.2,N
1523102335.1,286046997.6,N
1523102336.0,286046997.6,N
1523102355.8,286046994.9,Y
1523102375.7,286046999.1,P
1523102395.5,286046997.0,P
